NDF3430 EDDB-EKCH

Flight info

Callsign NDF3430
Flight time 0h 50m
Altitude 34000
Route GERGA4N/24L GERGA M725 RENKI Y89 USEDU DCT BINZE Z14 BANKU DCT KOSEB T298 MONAK MONAK5C
Aircraft A320/M-SDE3FGHIRWY/LB1

Departure

Time 2026-05-03 20:22
Airport Berlin Brandenburg Airport (EDDB)

Arrival

Time 2026-05-03 21:13
Airport Copenhagen Kastrup Airport (EKCH)
Time Latitude Longitude Altitude Speed Heading
2026-05-03 20:15 52.36173 13.50505 154 ft 4 kts 116°
2026-05-03 20:15 52.36186 13.50482 154 ft 1 kts 158°
2026-05-03 20:18 52.36159 13.50499 154 ft 7 kts 158°
2026-05-03 20:18 52.36109 13.50531 154 ft 6 kts 158°
2026-05-03 20:18 52.36065 13.50560 154 ft 8 kts 158°
2026-05-03 20:18 52.36026 13.50585 154 ft 7 kts 158°
2026-05-03 20:19 52.35981 13.50614 154 ft 2 kts 158°
2026-05-03 20:19 52.35962 13.50626 154 ft 3 kts 158°
2026-05-03 20:19 52.35954 13.50632 154 ft 2 kts 158°
2026-05-03 20:19 52.35933 13.50645 154 ft 5 kts 158°
2026-05-03 20:20 52.35895 13.50700 154 ft 9 kts 122°
2026-05-03 20:20 52.35843 13.50782 154 ft 12 kts 162°
2026-05-03 20:20 52.35767 13.50827 154 ft 13 kts 159°
2026-05-03 20:20 52.35674 13.50811 154 ft 15 kts 212°
2026-05-03 20:21 52.35591 13.50705 154 ft 15 kts 218°
2026-05-03 20:21 52.35502 13.50588 154 ft 17 kts 219°
2026-05-03 20:21 52.35409 13.50445 154 ft 19 kts 231°
2026-05-03 20:21 52.35309 13.50073 154 ft 67 kts 249°
2026-05-03 20:22 52.35065 13.49042 154 ft 124 kts 249°
2026-05-03 20:22 52.34699 13.47490 205 ft 164 kts 249°
2026-05-03 20:22 52.34248 13.45810 821 ft 160 kts 246°
2026-05-03 20:22 52.33739 13.44176 1430 ft 163 kts 237°
2026-05-03 20:23 52.32970 13.42767 2049 ft 171 kts 231°
2026-05-03 20:23 52.32109 13.41239 2382 ft 194 kts 231°
2026-05-03 20:23 52.31155 13.39527 2710 ft 212 kts 230°
2026-05-03 20:23 52.30139 13.37701 3305 ft 221 kts 230°
2026-05-03 20:24 52.29099 13.35830 4096 ft 224 kts 228°
2026-05-03 20:24 52.28044 13.33922 4877 ft 228 kts 227°
2026-05-03 20:24 52.26979 13.31986 5683 ft 230 kts 226°
2026-05-03 20:24 52.25910 13.30032 6529 ft 231 kts 225°
2026-05-03 20:25 52.24731 13.28257 7283 ft 231 kts 209°
2026-05-03 20:25 52.23220 13.27401 8085 ft 232 kts 186°
2026-05-03 20:25 52.21622 13.27711 8917 ft 237 kts 162°
2026-05-03 20:25 52.20232 13.29202 9711 ft 247 kts 137°
2026-05-03 20:26 52.19381 13.31698 10414 ft 262 kts 108°
2026-05-03 20:26 52.19230 13.34714 11087 ft 274 kts 89°
2026-05-03 20:26 52.19632 13.37859 11487 ft 296 kts 78°
2026-05-03 20:26 52.20208 13.41194 11812 ft 314 kts 77°
2026-05-03 20:27 52.20814 13.44655 12429 ft 319 kts 76°
2026-05-03 20:27 52.21426 13.48162 13117 ft 324 kts 76°
2026-05-03 20:27 52.22043 13.51718 13776 ft 328 kts 76°
2026-05-03 20:27 52.22664 13.55329 14367 ft 333 kts 76°
2026-05-03 20:28 52.23290 13.58990 14988 ft 336 kts 76°
2026-05-03 20:28 52.23917 13.62681 15601 ft 340 kts 77°
2026-05-03 20:28 52.24552 13.66415 16206 ft 343 kts 77°
2026-05-03 20:28 52.25192 13.70193 16817 ft 347 kts 77°
2026-05-03 20:29 52.25835 13.73999 17414 ft 350 kts 77°
2026-05-03 20:29 52.26483 13.77852 17998 ft 354 kts 77°
2026-05-03 20:29 52.27128 13.81687 18546 ft 357 kts 77°
2026-05-03 20:29 52.27792 13.85609 19065 ft 360 kts 77°
2026-05-03 20:30 52.28620 13.89480 19579 ft 365 kts 64°
2026-05-03 20:30 52.30038 13.92931 20095 ft 369 kts 47°
2026-05-03 20:30 52.31989 13.95670 20500 ft 375 kts 31°
2026-05-03 20:30 52.34389 13.97475 20616 ft 385 kts 13°
2026-05-03 20:31 52.37059 13.98203 20751 ft 396 kts
2026-05-03 20:31 52.39844 13.98716 20880 ft 409 kts
2026-05-03 20:31 52.42708 13.99259 21086 ft 419 kts
2026-05-03 20:31 52.45618 13.99833 21509 ft 423 kts
2026-05-03 20:32 52.48549 14.00425 21952 ft 426 kts
2026-05-03 20:32 52.51507 14.01030 22395 ft 429 kts
2026-05-03 20:32 52.54481 14.01641 22832 ft 432 kts
2026-05-03 20:32 52.57474 14.02253 23270 ft 435 kts
2026-05-03 20:33 52.60490 14.02569 23658 ft 435 kts 355°
2026-05-03 20:33 52.63546 14.02133 24030 ft 434 kts 349°
2026-05-03 20:33 52.66513 14.01494 24410 ft 436 kts 349°
2026-05-03 20:33 52.69525 14.00849 24788 ft 438 kts 349°
2026-05-03 20:34 52.72558 14.00200 25169 ft 440 kts 349°
2026-05-03 20:34 52.75638 13.99539 25544 ft 442 kts 349°
2026-05-03 20:34 52.78653 13.98895 25915 ft 443 kts 349°
2026-05-03 20:34 52.81716 13.98246 26277 ft 445 kts 349°
2026-05-03 20:35 52.84797 13.97595 26635 ft 447 kts 349°
2026-05-03 20:35 52.87932 13.96931 27005 ft 449 kts 349°
2026-05-03 20:35 52.91009 13.96433 27354 ft 453 kts 355°
2026-05-03 20:35 52.94173 13.96645 27710 ft 458 kts
2026-05-03 20:36 52.97389 13.97239 28060 ft 461 kts
2026-05-03 20:36 53.00588 13.97833 28411 ft 463 kts
2026-05-03 20:36 53.03748 13.98419 28742 ft 465 kts
2026-05-03 20:36 53.06974 13.99013 29079 ft 466 kts
2026-05-03 20:37 53.10194 13.99606 29504 ft 466 kts
2026-05-03 20:37 53.13415 14.00201 30000 ft 464 kts
2026-05-03 20:37 53.16619 14.00799 30428 ft 463 kts
2026-05-03 20:37 53.19812 14.01400 30872 ft 461 kts
2026-05-03 20:38 53.22997 14.01998 31301 ft 460 kts
2026-05-03 20:38 53.26170 14.02594 31727 ft 458 kts
2026-05-03 20:38 53.29336 14.03189 32158 ft 457 kts
2026-05-03 20:38 53.32486 14.03776 32570 ft 455 kts
2026-05-03 20:39 53.35640 14.04360 33012 ft 454 kts
2026-05-03 20:39 53.38774 14.04943 33444 ft 453 kts
2026-05-03 20:39 53.41910 14.05528 33827 ft 453 kts
2026-05-03 20:40 53.48212 14.06706 33911 ft 459 kts
2026-05-03 20:40 53.54586 14.07903 33898 ft 462 kts
2026-05-03 20:41 53.60982 14.08852 33896 ft 459 kts 356°
2026-05-03 20:41 53.67296 14.07352 33914 ft 454 kts 343°
2026-05-03 20:42 53.73411 14.05025 33886 ft 453 kts 343°
2026-05-03 20:42 53.79552 14.02689 33885 ft 453 kts 343°
2026-05-03 20:43 53.85705 14.00336 33889 ft 453 kts 343°
2026-05-03 20:43 53.91852 13.97984 33889 ft 453 kts 343°
2026-05-03 20:44 53.97859 13.94925 33901 ft 448 kts 334°
2026-05-03 20:44 54.03644 13.90943 33899 ft 449 kts 334°
2026-05-03 20:45 54.09439 13.86963 33891 ft 449 kts 334°
2026-05-03 20:45 54.15227 13.82963 33879 ft 449 kts 333°
2026-05-03 20:46 54.21030 13.78940 33875 ft 450 kts 333°
2026-05-03 20:46 54.26837 13.74903 33896 ft 451 kts 333°
2026-05-03 20:47 54.32639 13.70861 33855 ft 450 kts 333°
2026-05-03 20:47 54.35546 13.68832 33576 ft 450 kts 333°
2026-05-03 20:47 54.38448 13.66805 33297 ft 451 kts 333°
2026-05-03 20:47 54.41394 13.64740 33023 ft 451 kts 333°
2026-05-03 20:48 54.44263 13.62724 32757 ft 452 kts 333°
2026-05-03 20:48 54.47178 13.60673 32489 ft 453 kts 333°
2026-05-03 20:48 54.50098 13.58620 32241 ft 454 kts 333°
2026-05-03 20:48 54.53021 13.56566 31980 ft 454 kts 333°
2026-05-03 20:49 54.55950 13.54504 31721 ft 454 kts 333°
2026-05-03 20:49 54.58871 13.52439 31486 ft 454 kts 333°
2026-05-03 20:49 54.61794 13.50364 31231 ft 453 kts 333°
2026-05-03 20:49 54.64637 13.48097 30980 ft 447 kts 325°
2026-05-03 20:50 54.67177 13.45076 30730 ft 439 kts 315°
2026-05-03 20:50 54.69327 13.41419 30435 ft 430 kts 305°
2026-05-03 20:50 54.71059 13.37283 29905 ft 421 kts 295°
2026-05-03 20:50 54.72330 13.32778 29315 ft 413 kts 286°
2026-05-03 20:51 54.73226 13.28107 28796 ft 407 kts 283°
2026-05-03 20:51 54.74085 13.23465 28276 ft 403 kts 283°
2026-05-03 20:51 54.74938 13.18864 27761 ft 399 kts 283°
2026-05-03 20:51 54.75784 13.14304 27254 ft 396 kts 283°
2026-05-03 20:52 54.76350 13.11245 26926 ft 394 kts 283°
2026-05-03 20:52 54.77178 13.06744 26423 ft 391 kts 283°
2026-05-03 20:52 54.77999 13.02265 25921 ft 389 kts 283°
2026-05-03 20:52 54.78799 12.97862 25446 ft 386 kts 282°
2026-05-03 20:53 54.79321 12.93348 24970 ft 379 kts 272°
2026-05-03 20:53 54.79374 12.88761 24484 ft 374 kts 263°
2026-05-03 20:53 54.79155 12.84290 24008 ft 372 kts 262°
2026-05-03 20:53 54.78939 12.79832 23547 ft 370 kts 263°
2026-05-03 20:54 54.78732 12.75404 23051 ft 369 kts 263°
2026-05-03 20:54 54.78403 12.66610 22155 ft 364 kts 269°
2026-05-03 20:54 54.78765 12.62333 21708 ft 366 kts 281°
2026-05-03 20:55 54.79681 12.58216 21238 ft 369 kts 293°
2026-05-03 20:55 54.81128 12.54513 20757 ft 375 kts 306°
2026-05-03 20:55 54.82966 12.51279 20228 ft 377 kts 310°
2026-05-03 20:55 54.84833 12.48097 19705 ft 376 kts 310°
2026-05-03 20:56 54.86700 12.44905 19166 ft 376 kts 310°
2026-05-03 20:56 54.88562 12.41712 18612 ft 376 kts 310°
2026-05-03 20:56 54.90456 12.38559 18056 ft 380 kts 316°
2026-05-03 20:56 54.92767 12.36253 17441 ft 391 kts 335°
2026-05-03 20:57 54.95457 12.35387 16860 ft 399 kts 356°
2026-05-03 20:57 54.98218 12.36162 16182 ft 407 kts 18°
2026-05-03 20:57 55.00715 12.38523 15546 ft 410 kts 33°
2026-05-03 20:57 55.03076 12.41289 15036 ft 407 kts 33°
2026-05-03 20:58 55.05421 12.44040 14504 ft 405 kts 33°
2026-05-03 20:58 55.07751 12.46777 13969 ft 403 kts 33°
2026-05-03 20:58 55.10074 12.49507 13408 ft 401 kts 33°
2026-05-03 20:58 55.12344 12.52170 12860 ft 384 kts 33°
2026-05-03 20:59 55.14516 12.54717 12373 ft 368 kts 33°
2026-05-03 20:59 55.16613 12.57178 11903 ft 360 kts 33°
2026-05-03 20:59 55.18660 12.59588 11759 ft 349 kts 33°
2026-05-03 20:59 55.20648 12.61930 11625 ft 339 kts 33°
2026-05-03 21:00 55.22601 12.64180 11408 ft 332 kts 27°
2026-05-03 21:00 55.23994 12.65358 11333 ft 328 kts 19°
2026-05-03 21:00 55.26872 12.67048 10797 ft 330 kts 15°
2026-05-03 21:00 55.29051 12.68280 10401 ft 331 kts 15°
2026-05-03 21:01 55.31227 12.69512 10157 ft 326 kts 15°
2026-05-03 21:01 55.33377 12.70738 9829 ft 324 kts 15°
2026-05-03 21:01 55.35521 12.71965 9484 ft 323 kts 15°
2026-05-03 21:01 55.37651 12.73184 9132 ft 321 kts 15°
2026-05-03 21:02 55.39771 12.74400 8796 ft 320 kts 15°
2026-05-03 21:02 55.41880 12.75611 8457 ft 318 kts 15°
2026-05-03 21:02 55.43976 12.76814 8136 ft 316 kts 15°
2026-05-03 21:02 55.46064 12.78007 7791 ft 315 kts 15°
2026-05-03 21:03 55.48142 12.79195 7463 ft 313 kts 15°
2026-05-03 21:03 55.50208 12.80377 7151 ft 311 kts 16°
2026-05-03 21:03 55.52301 12.81577 6500 ft 322 kts 16°
2026-05-03 21:03 55.54436 12.82802 6128 ft 322 kts 17°
2026-05-03 21:04 55.56546 12.84059 5808 ft 317 kts 19°
2026-05-03 21:04 55.58564 12.85432 5516 ft 302 kts 21°
2026-05-03 21:04 55.60451 12.86812 5311 ft 286 kts 22°
2026-05-03 21:04 55.62227 12.88226 5044 ft 274 kts 30°
2026-05-03 21:05 55.63741 12.90126 4819 ft 261 kts 43°
2026-05-03 21:05 55.65067 12.92252 4619 ft 255 kts 42°
2026-05-03 21:05 55.66384 12.94325 4399 ft 252 kts 42°
2026-05-03 21:05 55.67691 12.96335 4244 ft 245 kts 37°
2026-05-03 21:06 55.69176 12.97627 4121 ft 233 kts 10°
2026-05-03 21:06 55.70729 12.97751 4008 ft 219 kts 345°
2026-05-03 21:06 55.72090 12.96906 3842 ft 201 kts 322°
2026-05-03 21:06 55.73099 12.95425 3636 ft 177 kts 303°
2026-05-03 21:07 55.73717 12.93707 3427 ft 156 kts 286°
2026-05-03 21:07 55.74047 12.91942 3280 ft 150 kts 279°
2026-05-03 21:07 55.74349 12.90173 3108 ft 150 kts 279°
2026-05-03 21:07 55.74613 12.88395 2942 ft 147 kts 270°
2026-05-03 21:08 55.74554 12.86623 2784 ft 142 kts 251°
2026-05-03 21:08 55.74139 12.85078 2652 ft 138 kts 224°
2026-05-03 21:08 55.73435 12.83905 2541 ft 139 kts 223°
2026-05-03 21:08 55.72736 12.82718 2424 ft 139 kts 221°
2026-05-03 21:09 55.72022 12.81557 2304 ft 139 kts 220°
2026-05-03 21:09 55.71296 12.80402 2246 ft 141 kts 220°
2026-05-03 21:09 55.70550 12.79228 2108 ft 142 kts 219°
2026-05-03 21:09 55.69818 12.78081 1935 ft 143 kts 219°
2026-05-03 21:10 55.69070 12.76913 1761 ft 144 kts 219°
2026-05-03 21:10 55.68320 12.75743 1568 ft 144 kts 219°
2026-05-03 21:10 55.67563 12.74565 1377 ft 145 kts 219°
2026-05-03 21:10 55.66806 12.73386 1178 ft 145 kts 219°
2026-05-03 21:11 55.66048 12.72209 979 ft 146 kts 219°
2026-05-03 21:11 55.65272 12.71000 803 ft 144 kts 220°
2026-05-03 21:11 55.64534 12.69865 545 ft 141 kts 219°
2026-05-03 21:11 55.63800 12.68678 428 ft 143 kts 222°
2026-05-03 21:12 55.63029 12.67521 210 ft 147 kts 221°
2026-05-03 21:12 55.62273 12.66338 24 ft 138 kts 220°
2026-05-03 21:12 55.61687 12.65442 17 ft 74 kts 221°
2026-05-03 21:12 55.61347 12.64909 18 ft 57 kts 223°
2026-05-03 21:13 55.61238 12.64547 17 ft 25 kts 255°
2026-05-03 21:13 55.61190 12.64296 17 ft 21 kts 251°
2026-05-03 21:13 55.61237 12.64101 17 ft 16 kts 352°
2026-05-03 21:13 55.61339 12.64182 19 ft 17 kts 34°
2026-05-03 21:14 55.61442 12.64299 19 ft 18 kts 32°
2026-05-03 21:14 55.61551 12.64420 17 ft 20 kts 32°
2026-05-03 21:14 55.61670 12.64562 17 ft 21 kts 33°
2026-05-03 21:14 55.61800 12.64711 19 ft 21 kts 33°
2026-05-03 21:15 55.61906 12.64831 18 ft 14 kts 33°
2026-05-03 21:15 55.61934 12.64864 18 ft 0 kts 33°
2026-05-03 21:15 55.61939 12.64870 17 ft 3 kts 33°
2026-05-03 21:16 55.61967 12.64902 18 ft 7 kts 33°
2026-05-03 21:16 55.62011 12.64952 18 ft 8 kts 33°
2026-05-03 21:16 55.62067 12.65018 18 ft 11 kts 33°
2026-05-03 21:16 55.62139 12.65101 17 ft 13 kts 33°
2026-05-03 21:17 55.62216 12.65187 17 ft 13 kts 22°
2026-05-03 21:17 55.62265 12.65198 17 ft 4 kts
2026-05-03 21:17 55.62296 12.65201 17 ft 4 kts
2026-05-03 21:17 55.62330 12.65206 17 ft 6 kts
2026-05-03 21:18 55.62376 12.65204 17 ft 7 kts 358°
2026-05-03 21:18 55.62434 12.65200 17 ft 9 kts 358°
2026-05-03 21:18 55.62504 12.65197 17 ft 11 kts 358°
2026-05-03 21:18 55.62587 12.65193 17 ft 13 kts 358°
2026-05-03 21:19 55.62676 12.65188 17 ft 10 kts 357°
2026-05-03 21:19 55.62722 12.65183 17 ft 3 kts 358°
2026-05-03 21:19 55.62731 12.65182 18 ft 0 kts 356°